SCP
-0 0 0 0 0 -0 -0 -0 0 -0 0 0 0 -0 -0 -0 -0 -0 -0 -0 -0 -0 0 0 0 0 0 0 -0 -0 -0 -0 -0 -0 -0 -0 -0 -0 0 0 0 -0 -0 -0
-0 0 0 0 -0 0 -0 -0 0 0 0 -0 -0 -0 -0 -0 -0 -0 -0 -0 -0 -0 -0 0 0 0 0 -0 -0 -0 -0 -0 -0 -0 -0 -0 0 0 0 0 0 -0 -0 -0
0 0 0 0 0 0 -0 -0 -0 -0 0 -0 -0 -0 -0 -0 -0 -0 -0 -0 -0 -0 -0 -0 0 0 0 0 -0 -0 -0 -0 -0 -0 -0 -0 0 0 0 0 -0 -0 0 0
0 0 0 0 -0 -0 -0 -0 0 0 -0 -0 0 -0 -0 -0 -0 -0 -0 -0 -0 -0 -0 0 0 0 0 0 -0 -0 -0 -0 -0 -0 -0 -0 -0 -0 0 0 0 0 0 0
0 0 0 0 0 -0 -0 -0 0 0 -0 -0 -0 -0 -0 -0 -0 -0 -0 -0 -0 -0 -0 -0 -0 0 0 0 0 -0 -0 -0 -0 -0 -0 -0 -0 -0 0 -0 -0 0 0 0
-0 0 0 0 0 -0 -0 0 -0 -0 -0 -0 -0 -0 -0 0 -0 -0 -0 -0 -0 -0 -0 -0 0 0 0 0 0 0 -0 -0 -0 -0 -0 -0 -0 -0 0 0 0 0 0 0
0 0 0 0 -0 0 0 -0 -0 0 -0 -0 0 -0 -0 -0 0 0 -0 -0 -0 -0 -0 -0 0 0 0 0 0 0 0 -0 -0 -0 -0 -0 -0 -0 -0 0 0 0 0 0
0 0 0 0 0 0 0 -0 -0 -0 0 -0 0 0 -0 -0 -0 0 -0 -0 -0 -0 -0 -0 -0 0 0 0 0 0 0 0 -0 -0 -0 -0 -0 -0 0 0 0 0 0 0
0 0 0 0 0 0 0 -0 0 -0 -0 -0 0 -0 -0 -0 -0 0 -0 -0 -0 -0 -0 -0 -0 -0 0 0 0 0 0 0 -0 -0 -0 -0 -0 -0 -0 0 0 0 0 0
0 0 0 0 0 0 0 0 0 -0 0 0 0 0 0 -0 -0 -0 -0 -0 -0 -0 -0 -0 -0 -0 0 0 0 0 0 -0 -0 -0 -0 -0 -0 -0 -0 0 0 -0 -0 0
0 0 0 0 0 0 0 -0 0 0 0 0 -0 0 0 0 0 -0 -0 0 -0 -0 -0 -0 -0 -0 -0 0 0 0 0 0 0 0 -0 -0 -0 -0 -0 -0 -0 -0 -0 -0
0 0 0 0 0 0 0 0 -0 -0 0 0 0 0 0 0 0 -0 -0 -0 0 0 -0 0 -0 -0 -0 -0 0 -0 -0 0 0 0 -0 -0 -0 -0 -0 -0 -0 -0 -0 -0
0 0 0 0 0 0 0 0 0 0 0 0 0 0 -0 0 0 0 0 0 0 0 0 -0 -0 -0 -0 -0 0 0 -0 -0 -0 -0 -0 0 0 -0 -0 -0 -0 -0 -0 -0
0 0 0 0 0 0 0 0 0 0 0 0 0 0 0 0 0 0 0 0 0 0 0 0 0 -0 0 -0 -0 -0 0 -0 -0 -0 -0 -0 0 -0 0 0 0 -0 -0 -0
0 0 0 0 0 0 0 0 0 0 0 0 0 0 0 0 0 0 1 1 1 1 1 1 0 0 -0 0 0 -0 -0 -0 -0 -0 -0 -0 -0 -0 -0 -0 0 0 0 0
0 0 0 0 0 0 0 0 0 0 0 0 0 0 0 0 0 0 0 1 1 2 3 2 1 1 1 0 0 -0 0 0 0 -0 0 -0 -0 -0 -0 0 0 0 0 0
0 0 0 -0 0 0 -0 0 0 0 0 0 0 1 0 0 0 0 1 1 1 1 2 2 4 4 3 2 1 0 0 0 0 0 0 0 0 0 0 0 0 0 0 1
0 0 0 0 0 0 0 0 0 0 0 0 0 1 0 0 0 0 0 1 1 1 1 1 1 1 3 4 3 2 1 0 1 0 0 1 0 0 0 0 0 1 1 1
-0 -0 -0 -0 0 0 0 0 0 0 0 0 0 0 0 0 -0 -0 0 1 1 1 2 1 1 0 0 1 5 4 2 1 1 1 1 1 1 1 1 1 1 2 2 2
0 0 -0 0 0 0 0 0 0 0 0 0 0 0 0 0 -0 0 -0 0 0 0 1 1 0 0 0 0 0 6 3 3 2 4 4 2 2 2 2 2 2 3 4 5
0 0 0 0 0 0 0 0 0 0 0 0 0 0 0 0 1 1 0 0 0 0 0 0 0 0 0 0 0 0 3 1 1 1 2 3 3 2 2 2 2 3 4 2
0 0 0 0 0 0 0 0 0 0 0 0 0 0 0 0 0 0 0 0 0 -0 0 0 0 0 0 0 0 0 0 2 1 1 1 1 1 1 2 2 3 3 2 1
0 0 0 0 0 0 0 0 0 0 0 0 0 0 0 0 0 0 0 -0 -0 -0 0 0 0 -0 0 0 0 0 0 -1 -1 0 0 1 1 1 1 1 1 1 1 0
0 0 0 0 0 0 0 0 0 0 0 0 0 0 0 0 0 0 -0 -0 -0 -0 0 0 0 0 -0 -0 0 0 0 -0 -0 0 1 1 1 2 2 1 1 1 0 0
0 0 0 0 0 0 0 0 0 0 0 0 0 0 0 0 0 0 0 -0 -0 -0 -0 -0 -0 -0 -0 -0 -0 -0 0 0 1 1 0 1 1 1 1 1 1 1 1 0
0 0 0 0 0 0 0 0 0 0 0 0 0 0 0 0 0 0 0 0 0 0 -0 -0 -0 0 -0 0 0 0 0 1 0 0 0 1 1 1 0 0 0 0 0 0
Wind_Speed_500mb
14 17 12 17 17 19 21 20 11 13 7 15 16 11 18 34 39 40 45 48 52 51 50 48 44 39 36 34 34 35 33 33 32 29 26 23 20 19 18 17 18 12 15 18
16 21 1 9 17 16 15 15 13 8 6 14 9 16 23 30 37 44 48 46 49 52 54 52 47 43 41 39 37 38 37 36 35 28 25 23 21 21 20 19 19 14 13 16
26 13 3 10 14 17 6 18 15 15 6 8 9 16 25 31 32 36 41 45 47 53 56 56 51 46 43 42 42 42 42 40 36 32 27 27 24 25 21 22 17 14 13 15
19 4 19 24 20 16 13 13 10 1 15 15 5 4 20 27 33 37 46 48 48 51 54 54 54 47 45 43 39 40 42 42 40 38 31 30 23 21 20 17 13 14 13 14
8 8 14 24 16 11 16 12 12 11 19 17 13 12 14 20 27 37 47 52 51 50 56 56 56 51 46 41 39 37 40 45 43 42 37 30 28 21 16 16 16 12 16 10
24 4 12 11 9 14 19 20 19 15 16 11 11 16 21 13 17 33 48 54 53 53 57 57 53 50 47 42 37 35 37 37 44 46 40 36 30 27 20 18 12 11 9 7
21 28 27 16 23 18 18 25 12 6 10 10 6 13 19 9 4 12 39 54 56 55 53 57 56 52 48 44 40 36 36 32 37 45 43 39 31 28 28 22 16 17 12 8
8 20 29 22 29 15 11 19 16 6 3 6 5 4 16 16 6 9 23 47 56 57 57 56 59 51 46 42 41 38 40 39 40 42 42 40 34 31 28 28 26 22 16 12
6 6 13 6 6 10 8 19 12 15 9 14 5 15 25 26 25 17 17 33 50 58 59 61 59 55 49 45 43 43 43 40 39 42 45 42 37 35 34 34 34 29 24 18
2 9 4 17 8 8 12 6 12 10 4 9 12 5 18 20 25 22 12 22 34 44 52 56 59 57 53 49 48 46 44 43 41 40 42 43 41 36 37 39 40 36 29 30
15 12 16 11 6 7 12 17 2 5 9 6 8 13 15 20 15 23 19 4 25 37 46 53 54 54 53 50 47 47 46 44 47 46 43 42 41 39 38 41 41 42 41 40
15 10 5 17 11 4 4 10 16 13 16 5 10 8 19 25 22 23 22 13 3 23 34 40 44 46 52 48 45 46 41 43 49 48 45 43 44 46 43 42 41 41 42 40
12 14 14 16 16 9 5 5 5 8 4 4 14 12 15 32 26 26 29 24 10 11 25 33 39 41 43 46 44 45 47 43 43 47 50 47 48 51 50 46 43 44 45 44
7 8 17 7 9 10 13 8 2 14 14 10 13 19 33 31 27 31 33 31 21 4 15 23 29 33 32 37 43 48 45 45 44 44 46 48 48 50 49 49 49 47 46 48
9 7 8 3 4 4 6 8 6 12 13 15 23 20 23 22 24 31 34 38 33 27 14 5 12 17 22 29 38 44 44 45 44 46 48 48 44 46 49 54 56 55 55 53
6 5 10 10 7 8 14 7 7 6 3 8 8 8 15 19 25 32 32 31 34 42 37 28 17 4 4 13 24 35 41 41 40 40 40 40 42 43 44 46 49 56 62 62
14 10 13 25 10 14 20 22 12 6 3 13 13 15 11 15 22 22 25 33 34 34 41 49 50 42 30 18 15 21 29 36 42 42 42 43 43 43 44 44 46 48 50 47
18 15 10 18 5 28 8 10 4 10 2 5 10 10 15 16 17 19 20 19 26 32 38 46 57 55 54 49 37 25 16 30 37 42 44 44 44 43 42 43 44 44 42 40
21 20 16 18 22 19 13 6 4 9 14 8 7 9 10 12 17 12 12 17 18 17 23 42 47 59 63 66 57 45 35 19 16 27 34 39 43 43 42 42 42 36 32 31
8 15 16 8 27 27 19 13 4 5 12 9 5 5 5 9 15 11 16 10 10 13 12 6 23 39 42 52 67 69 51 30 17 9 7 11 18 23 26 27 28 23 25 37
8 9 20 17 15 6 12 7 3 18 7 10 7 3 5 8 8 8 13 18 21 11 4 7 21 31 44 29 36 60 66 49 24 18 12 8 5 1 4 6 9 15 22 24
8 7 10 8 9 14 10 10 10 10 7 7 7 9 6 2 5 13 24 26 24 25 26 20 4 10 19 27 45 69 61 76 38 19 17 13 12 10 7 4 6 10 14 18
9 6 9 8 10 14 7 5 1 6 6 7 7 7 4 4 5 9 17 25 31 33 33 29 34 41 22 8 14 32 29 68 47 25 20 16 12 11 7 4 2 8 9 10
7 5 9 5 12 7 2 4 8 9 13 15 17 13 11 8 7 11 18 25 30 28 27 24 28 29 35 39 44 45 52 36 24 17 17 17 11 8 6 5 9 13 12 12
8 9 12 14 9 10 10 6 3 1 4 8 13 14 11 5 5 8 10 12 18 22 21 22 31 44 45 37 27 25 18 13 12 7 7 7 2 4 5 9 13 13 8 7
28 19 15 6 12 3 11 7 6 3 2 2 6 8 3 6 10 11 9 14 12 14 13 12 25 38 39 26 10 13 9 14 11 3 4 4 6 13 10 11 14 12 8 4
Wind_Direction_500mb
198 246 241 7 335 321 317 320 333 44 121 192 201 186 170 175 188 181 186 188 191 192 188 187 190 194 196 199 199 199 198 200 198 199 204 212 216 220 224 226 242 276 287 291
204 238 326 322 298 303 315 278 60 118 118 209 156 221 186 188 196 190 188 192 194 193 190 190 193 196 200 205 207 208 207 208 206 207 207 211 218 223 223 230 243 273 296 306
248 87 91 271 300 299 138 7 9 2 133 196 279 212 192 192 203 200 201 197 198 196 194 192 195 199 203 207 211 212 217 217 217 207 213 222 224 222 235 236 244 266 282 331
253 265 260 264 267 286 285 10 340 259 281 11 293 29 177 188 201 202 201 204 200 198 200 198 197 203 206 211 213 214 218 222 224 225 217 218 218 222 223 223 237 259 291 295
125 223 221 239 256 300 343 344 314 290 281 278 140 252 104 183 205 208 207 202 202 199 199 199 198 201 203 208 213 216 218 219 219 225 220 225 221 225 216 218 238 261 285 244
272 130 270 267 276 250 301 275 240 234 266 239 51 292 127 156 218 206 205 206 199 199 200 200 201 199 201 204 212 215 222 221 218 224 224 229 222 214 211 222 229 247 217 228
215 227 232 241 259 220 235 252 277 259 198 40 52 265 57 66 164 200 198 199 200 199 197 200 199 197 200 204 210 212 216 221 217 223 226 229 229 231 225 224 227 224 232 233
254 177 197 182 233 314 235 316 299 274 296 60 149 17 69 19 5 216 187 194 194 198 198 200 198 198 201 206 210 210 214 225 222 218 224 229 228 228 227 229 219 231 238 240
225 140 131 197 227 257 171 241 349 291 213 261 65 112 93 47 48 80 163 180 190 196 199 201 201 204 207 210 213 214 218 233 233 225 224 229 228 224 224 222 230 234 239 233
87 200 127 123 174 87 286 18 216 203 230 286 126 211 60 17 21 28 117 173 187 199 201 203 206 206 209 211 214 216 218 226 231 226 226 228 228 230 230 234 237 233 229 238
256 270 144 180 335 80 165 200 206 353 312 308 260 98 37 20 12 9 16 170 187 194 201 206 207 208 210 212 215 217 218 218 227 234 233 230 230 231 234 235 237 237 239 245
215 283 193 94 112 50 325 44 276 279 148 58 315 53 70 33 5 355 6 14 248 203 199 204 208 212 212 214 215 216 215 216 229 235 235 233 233 234 236 238 238 238 240 243
170 241 155 183 168 183 235 74 353 316 278 139 313 91 92 32 20 5 354 347 337 219 204 197 199 205 210 214 215 221 225 227 226 234 239 237 237 236 237 240 239 242 243 244
268 272 287 299 53 103 176 179 349 302 292 25 307 356 35 19 18 20 10 6 5 352 208 206 200 201 205 207 212 222 226 225 223 230 240 244 245 243 239 240 242 243 247 248
285 258 268 6 76 211 191 201 207 288 353 306 353 333 30 28 32 29 23 25 37 49 60 152 203 213 218 215 214 222 222 222 227 231 236 241 245 247 245 243 246 248 249 252
315 249 247 212 206 235 238 215 255 304 320 269 292 93 48 52 59 40 36 45 45 39 47 59 68 65 261 250 241 233 232 229 227 233 239 242 243 243 245 248 249 251 253 254
288 279 234 252 192 244 245 234 230 340 301 319 329 49 57 55 53 58 55 59 55 58 54 63 53 52 42 13 305 266 249 235 236 237 241 244 247 248 248 249 251 252 252 250
271 253 246 260 187 237 39 61 25 285 22 61 89 85 82 83 84 83 73 66 59 69 68 65 59 56 47 31 24 356 279 255 237 236 232 234 241 244 249 253 254 254 252 247
235 250 238 248 231 244 158 155 220 254 110 63 79 106 117 133 131 93 98 83 64 61 65 75 72 54 44 32 20 8 4 336 264 251 249 244 242 245 248 248 247 246 240 231
199 246 254 198 257 255 65 92 95 256 196 90 41 99 105 203 251 117 203 163 116 104 92 78 82 84 49 29 4 1 357 346 0 27 324 270 256 252 250 248 244 234 225 229
166 210 224 216 251 134 81 83 168 230 73 74 59 99 197 260 353 157 195 223 229 182 177 273 269 257 233 232 318 331 342 331 328 349 359 7 358 226 213 233 233 225 220 230
235 246 205 233 245 234 105 150 296 59 131 69 81 116 133 259 249 242 239 250 247 245 261 274 303 212 200 208 228 259 317 307 318 326 321 314 310 313 306 251 227 234 239 240
241 305 342 313 51 93 82 28 313 284 283 262 240 212 246 235 253 249 251 249 255 264 260 261 252 254 225 46 174 275 274 289 293 296 290 277 267 264 266 275 114 113 121 153
191 246 253 258 122 113 30 269 249 235 265 257 236 238 235 271 304 279 264 263 266 270 267 257 243 232 229 242 295 263 264 277 290 302 297 281 277 256 191 159 129 115 118 144
10 164 234 242 236 136 122 87 116 178 259 232 222 229 219 289 346 9 348 305 283 280 275 261 249 244 256 271 258 243 248 245 258 283 291 285 275 164 142 126 113 104 106 156
221 230 222 269 90 236 114 126 153 192 211 175 161 179 227 311 327 339 338 322 318 310 311 279 248 250 247 218 207 240 279 309 253 293 314 66 123 116 119 100 96 91 89 70
Wind_Speed_850mb
14 17 12 17 17 19 21 20 11 13 7 15 16 11 18 34 39 40 45 48 52 51 50 48 44 39 36 34 34 35 33 33 32 29 26 23 20 19 18 17 18 12 15 18
16 21 1 9 17 16 15 15 13 8 6 14 9 16 23 30 37 44 48 46 49 52 54 52 47 43 41 39 37 38 37 36 35 28 25 23 21 21 20 19 19 14 13 16
26 13 3 10 14 17 6 18 15 15 6 8 9 16 25 31 32 36 41 45 47 53 56 56 51 46 43 42 42 42 42 40 36 32 27 27 24 25 21 22 17 14 13 15
19 4 19 24 20 16 13 13 10 1 15 15 5 4 20 27 33 37 46 48 48 51 54 54 54 47 45 43 39 40 42 42 40 38 31 30 23 21 20 17 13 14 13 14
8 8 14 24 16 11 16 12 12 11 19 17 13 12 14 20 27 37 47 52 51 50 56 56 56 51 46 41 39 37 40 45 43 42 37 30 28 21 16 16 16 12 16 10
24 4 12 11 9 14 19 20 19 15 16 11 11 16 21 13 17 33 48 54 53 53 57 57 53 50 47 42 37 35 37 37 44 46 40 36 30 27 20 18 12 11 9 7
21 28 27 16 23 18 18 25 12 6 10 10 6 13 19 9 4 12 39 54 56 55 53 57 56 52 48 44 40 36 36 32 37 45 43 39 31 28 28 22 16 17 12 8
8 20 29 22 29 15 11 19 16 6 3 6 5 4 16 16 6 9 23 47 56 57 57 56 59 51 46 42 41 38 40 39 40 42 42 40 34 31 28 28 26 22 16 12
6 6 13 6 6 10 8 19 12 15 9 14 5 15 25 26 25 17 17 33 50 58 59 61 59 55 49 45 43 43 43 40 39 42 45 42 37 35 34 34 34 29 24 18
2 9 4 17 8 8 12 6 12 10 4 9 12 5 18 20 25 22 12 22 34 44 52 56 59 57 53 49 48 46 44 43 41 40 42 43 41 36 37 39 40 36 29 30
15 12 16 11 6 7 12 17 2 5 9 6 8 13 15 20 15 23 19 4 25 37 46 53 54 54 53 50 47 47 46 44 47 46 43 42 41 39 38 41 41 42 41 40
15 10 5 17 11 4 4 10 16 13 16 5 10 8 19 25 22 23 22 13 3 23 34 40 44 46 52 48 45 46 41 43 49 48 45 43 44 46 43 42 41 41 42 40
12 14 14 16 16 9 5 5 5 8 4 4 14 12 15 32 26 26 29 24 10 11 25 33 39 41 43 46 44 45 47 43 43 47 50 47 48 51 50 46 43 44 45 44
7 8 17 7 9 10 13 8 2 14 14 10 13 19 33 31 27 31 33 31 21 4 15 23 29 33 32 37 43 48 45 45 44 44 46 48 48 50 49 49 49 47 46 48
9 7 8 3 4 4 6 8 6 12 13 15 23 20 23 22 24 31 34 38 33 27 14 5 12 17 22 29 38 44 44 45 44 46 48 48 44 46 49 54 56 55 55 53
6 5 10 10 7 8 14 7 7 6 3 8 8 8 15 19 25 32 32 31 34 42 37 28 17 4 4 13 24 35 41 41 40 40 40 40 42 43 44 46 49 56 62 62
14 10 13 25 10 14 20 22 12 6 3 13 13 15 11 15 22 22 25 33 34 34 41 49 50 42 30 18 15 21 29 36 42 42 42 43 43 43 44 44 46 48 50 47
18 15 10 18 5 28 8 10 4 10 2 5 10 10 15 16 17 19 20 19 26 32 38 46 57 55 54 49 37 25 16 30 37 42 44 44 44 43 42 43 44 44 42 40
21 20 16 18 22 19 13 6 4 9 14 8 7 9 10 12 17 12 12 17 18 17 23 42 47 59 63 66 57 45 35 19 16 27 34 39 43 43 42 42 42 36 32 31
8 15 16 8 27 27 19 13 4 5 12 9 5 5 5 9 15 11 16 10 10 13 12 6 23 39 42 52 67 69 51 30 17 9 7 11 18 23 26 27 28 23 25 37
8 9 20 17 15 6 12 7 3 18 7 10 7 3 5 8 8 8 13 18 21 11 4 7 21 31 44 29 36 60 66 49 24 18 12 8 5 1 4 6 9 15 22 24
8 7 10 8 9 14 10 10 10 10 7 7 7 9 6 2 5 13 24 26 24 25 26 20 4 10 19 27 45 69 61 76 38 19 17 13 12 10 7 4 6 10 14 18
9 6 9 8 10 14 7 5 1 6 6 7 7 7 4 4 5 9 17 25 31 33 33 29 34 41 22 8 14 32 29 68 47 25 20 16 12 11 7 4 2 8 9 10
7 5 9 5 12 7 2 4 8 9 13 15 17 13 11 8 7 11 18 25 30 28 27 24 28 29 35 39 44 45 52 36 24 17 17 17 11 8 6 5 9 13 12 12
8 9 12 14 9 10 10 6 3 1 4 8 13 14 11 5 5 8 10 12 18 22 21 22 31 44 45 37 27 25 18 13 12 7 7 7 2 4 5 9 13 13 8 7
28 19 15 6 12 3 11 7 6 3 2 2 6 8 3 6 10 11 9 14 12 14 13 12 25 38 39 26 10 13 9 14 11 3 4 4 6 13 10 11 14 12 8 4
Wind_Direction_850mb
198 246 241 7 335 321 317 320 333 44 121 192 201 186 170 175 188 181 186 188 191 192 188 187 190 194 196 199 199 199 198 200 198 199 204 212 216 220 224 226 242 276 287 291
204 238 326 322 298 303 315 278 60 118 118 209 156 221 186 188 196 190 188 192 194 193 190 190 193 196 200 205 207 208 207 208 206 207 207 211 218 223 223 230 243 273 296 306
248 87 91 271 300 299 138 7 9 2 133 196 279 212 192 192 203 200 201 197 198 196 194 192 195 199 203 207 211 212 217 217 217 207 213 222 224 222 235 236 244 266 282 331
253 265 260 264 267 286 285 10 340 259 281 11 293 29 177 188 201 202 201 204 200 198 200 198 197 203 206 211 213 214 218 222 224 225 217 218 218 222 223 223 237 259 291 295
125 223 221 239 256 300 343 344 314 290 281 278 140 252 104 183 205 208 207 202 202 199 199 199 198 201 203 208 213 216 218 219 219 225 220 225 221 225 216 218 238 261 285 244
272 130 270 267 276 250 301 275 240 234 266 239 51 292 127 156 218 206 205 206 199 199 200 200 201 199 201 204 212 215 222 221 218 224 224 229 222 214 211 222 229 247 217 228
215 227 232 241 259 220 235 252 277 259 198 40 52 265 57 66 164 200 198 199 200 199 197 200 199 197 200 204 210 212 216 221 217 223 226 229 229 231 225 224 227 224 232 233
254 177 197 182 233 314 235 316 299 274 296 60 149 17 69 19 5 216 187 194 194 198 198 200 198 198 201 206 210 210 214 225 222 218 224 229 228 228 227 229 219 231 238 240
225 140 131 197 227 257 171 241 349 291 213 261 65 112 93 47 48 80 163 180 190 196 199 201 201 204 207 210 213 214 218 233 233 225 224 229 228 224 224 222 230 234 239 233
87 200 127 123 174 87 286 18 216 203 230 286 126 211 60 17 21 28 117 173 187 199 201 203 206 206 209 211 214 216 218 226 231 226 226 228 228 230 230 234 237 233 229 238
256 270 144 180 335 80 165 200 206 353 312 308 260 98 37 20 12 9 16 170 187 194 201 206 207 208 210 212 215 217 218 218 227 234 233 230 230 231 234 235 237 237 239 245
215 283 193 94 112 50 325 44 276 279 148 58 315 53 70 33 5 355 6 14 248 203 199 204 208 212 212 214 215 216 215 216 229 235 235 233 233 234 236 238 238 238 240 243
170 241 155 183 168 183 235 74 353 316 278 139 313 91 92 32 20 5 354 347 337 219 204 197 199 205 210 214 215 221 225 227 226 234 239 237 237 236 237 240 239 242 243 244
268 272 287 299 53 103 176 179 349 302 292 25 307 356 35 19 18 20 10 6 5 352 208 206 200 201 205 207 212 222 226 225 223 230 240 244 245 243 239 240 242 243 247 248
285 258 268 6 76 211 191 201 207 288 353 306 353 333 30 28 32 29 23 25 37 49 60 152 203 213 218 215 214 222 222 222 227 231 236 241 245 247 245 243 246 248 249 252
315 249 247 212 206 235 238 215 255 304 320 269 292 93 48 52 59 40 36 45 45 39 47 59 68 65 261 250 241 233 232 229 227 233 239 242 243 243 245 248 249 251 253 254
288 279 234 252 192 244 245 234 230 340 301 319 329 49 57 55 53 58 55 59 55 58 54 63 53 52 42 13 305 266 249 235 236 237 241 244 247 248 248 249 251 252 252 250
271 253 246 260 187 237 39 61 25 285 22 61 89 85 82 83 84 83 73 66 59 69 68 65 59 56 47 31 24 356 279 255 237 236 232 234 241 244 249 253 254 254 252 247
235 250 238 248 231 244 158 155 220 254 110 63 79 106 117 133 131 93 98 83 64 61 65 75 72 54 44 32 20 8 4 336 264 251 249 244 242 245 248 248 247 246 240 231
199 246 254 198 257 255 65 92 95 256 196 90 41 99 105 203 251 117 203 163 116 104 92 78 82 84 49 29 4 1 357 346 0 27 324 270 256 252 250 248 244 234 225 229
166 210 224 216 251 134 81 83 168 230 73 74 59 99 197 260 353 157 195 223 229 182 177 273 269 257 233 232 318 331 342 331 328 349 359 7 358 226 213 233 233 225 220 230
235 246 205 233 245 234 105 150 296 59 131 69 81 116 133 259 249 242 239 250 247 245 261 274 303 212 200 208 228 259 317 307 318 326 321 314 310 313 306 251 227 234 239 240
241 305 342 313 51 93 82 28 313 284 283 262 240 212 246 235 253 249 251 249 255 264 260 261 252 254 225 46 174 275 274 289 293 296 290 277 267 264 266 275 114 113 121 153
191 246 253 258 122 113 30 269 249 235 265 257 236 238 235 271 304 279 264 263 266 270 267 257 243 232 229 242 295 263 264 277 290 302 297 281 277 256 191 159 129 115 118 144
10 164 234 242 236 136 122 87 116 178 259 232 222 229 219 289 346 9 348 305 283 280 275 261 249 244 256 271 258 243 248 245 258 283 291 285 275 164 142 126 113 104 106 156
221 230 222 269 90 236 114 126 153 192 211 175 161 179 227 311 327 339 338 322 318 310 311 279 248 250 247 218 207 240 279 309 253 293 314 66 123 116 119 100 96 91 89 70